GFSGBSN_925_rhum_000.txt.gz
RH
86 94 95 94 97 95 89 90 92 91 90 88 87 90 91 93 93 92 91 93 95 97 95 94 80 81 93 91 76 59 58 62 70 74 75 84 71 64 69 64 58 60 53 49 47 50 51
81 84 94 93 95 97 95 90 91 92 93 92 92 91 91 94 94 95 94 94 90 84 96 93 86 84 90 96 59 50 52 56 68 74 76 82 71 55 60 60 60 56 55 54 48 45 39
78 80 89 94 96 97 96 91 93 93 94 93 93 94 93 93 92 93 94 92 93 89 78 80 76 82 89 76 57 62 61 50 50 75 72 84 79 49 54 58 54 49 54 51 44 42 43
80 77 82 82 92 95 93 95 94 94 94 94 94 86 83 86 83 94 95 93 91 92 78 74 77 87 87 63 55 63 58 63 52 72 77 80 61 53 53 45 42 50 45 59 44 35 35
76 78 84 82 80 95 97 95 95 94 94 94 94 89 92 92 92 96 94 87 90 81 93 79 85 82 82 60 66 63 53 67 70 73 84 76 69 62 56 60 53 46 57 56 48 35 37
72 75 86 90 88 91 94 93 96 94 93 92 95 91 87 89 93 93 99 87 80 84 79 82 81 88 76 75 66 62 48 55 73 78 79 95 83 78 79 79 87 65 55 52 54 37 38
75 75 76 87 78 88 77 94 95 94 95 93 84 82 81 88 87 95 100 100 92 93 82 88 79 78 69 59 64 65 59 59 70 83 93 94 92 95 82 70 61 59 52 61 44 36 36
74 75 75 81 84 85 84 93 92 93 96 97 80 90 89 94 98 99 99 87 69 66 90 76 77 74 64 68 81 67 53 74 85 75 78 94 90 69 72 70 62 48 50 52 50 39 37
72 75 75 77 84 86 81 90 89 91 95 96 81 81 87 98 99 100 97 72 65 66 85 87 74 77 72 65 79 77 58 69 84 63 83 78 82 62 68 67 63 53 56 56 58 46 41
77 74 80 78 84 86 88 84 83 92 87 86 62 76 88 99 100 99 97 89 81 67 99 96 84 77 71 76 83 62 51 62 76 67 74 86 75 75 69 80 69 88 50 45 45 49 58
87 83 83 87 86 84 90 92 91 80 84 78 70 73 87 99 92 98 91 89 86 98 96 77 80 58 72 78 74 79 50 57 87 74 75 86 88 91 79 70 69 72 46 48 44 50 48
88 88 84 90 88 91 87 94 96 91 79 70 72 66 84 95 98 97 100 96 95 100 95 93 81 79 83 72 76 75 73 74 66 69 64 67 64 75 80 68 58 50 48 44 52 53 67
86 88 88 88 89 92 90 94 92 99 81 76 73 84 90 93 97 96 98 95 99 99 86 93 84 75 75 83 80 78 81 89 83 91 88 66 82 58 57 55 45 49 49 77 65 70 72
87 89 86 84 89 90 94 92 93 99 96 81 82 93 96 94 100 82 94 94 100 98 84 71 80 72 84 71 80 75 88 94 86 60 71 86 95 57 39 60 69 58 55 69 71 74 63
89 92 86 87 89 91 96 92 90 99 99 89 94 99 99 98 100 95 92 100 99 78 76 80 76 78 90 72 87 87 86 88 75 57 65 81 77 37 33 34 54 56 54 46 61 60 72
90 90 85 86 84 90 98 98 91 99 99 94 98 99 97 96 100 95 96 99 95 69 71 67 81 78 96 81 92 93 91 73 73 56 48 56 57 43 34 29 30 42 42 53 63 66 70
89 87 85 84 86 89 99 98 90 99 98 84 97 91 98 100 100 97 99 95 85 62 65 67 80 86 77 84 89 91 88 76 58 54 45 46 50 54 39 44 43 39 45 52 55 63 64
91 86 85 87 88 90 99 97 95 99 96 86 93 88 100 100 99 95 94 93 65 72 80 75 64 64 70 77 78 88 88 69 55 62 63 50 60 60 48 45 40 36 41 45 61 57 63
88 88 86 88 88 87 94 96 99 99 96 76 90 98 100 100 99 99 95 86 73 79 84 82 67 60 54 66 81 78 88 64 65 60 64 59 65 82 68 55 54 47 44 43 52 56 64
86 89 87 89 88 88 89 94 99 99 98 88 90 89 100 100 96 88 94 88 92 94 93 72 64 61 57 68 71 85 87 62 57 57 68 53 63 62 72 54 60 62 52 48 46 62 59
88 87 84 88 92 90 86 93 99 100 97 96 90 68 72 94 91 75 72 89 95 93 81 62 66 57 63 76 77 84 69 64 53 64 53 50 56 50 47 54 55 55 55 54 51 46 53
89 86 81 88 92 91 88 92 100 100 86 92 81 77 73 74 59 60 64 80 75 64 68 67 77 67 57 65 62 81 69 65 62 51 49 52 55 42 40 41 36 43 48 57 50 51 43
89 86 81 89 92 88 86 93 98 100 85 86 80 80 57 66 59 55 59 65 61 56 59 62 64 64 58 53 48 57 56 57 56 50 50 44 46 47 51 44 40 38 42 64 54 47 51
92 88 83 88 89 84 87 94 97 99 88 73 76 80 64 57 57 54 52 53 60 52 60 55 47 56 44 40 43 42 50 55 54 56 45 44 45 47 50 49 45 33 47 40 49 50 49
98 90 85 88 89 88 86 93 94 98 94 70 75 77 66 64 63 53 55 61 55 56 58 54 53 57 51 42 56 73 54 41 56 60 56 46 53 67 59 59 47 52 53 61 53 65 57
98 94 81 86 88 89 90 93 91 98 97 70 75 80 70 66 61 50 54 50 60 58 53 50 45 52 47 60 54 85 82 63 52 57 50 55 58 52 88 76 62 46 47 45 48 69 62
98 94 83 87 86 88 86 93 98 98 98 86 74 86 76 77 77 55 53 55 58 62 65 49 45 43 52 74 77 79 69 58 58 59 56 62 68 64 75 73 66 48 48 42 58 58 68
100 97 84 87 86 89 86 93 98 94 99 93 83 87 83 87 86 79 66 63 66 65 58 55 58 56 68 70 76 83 77 71 69 66 61 56 73 77 83 75 70 53 53 56 61 63 60
100 99 92 88 86 93 88 92 90 95 99 94 82 83 83 88 89 88 80 71 64 62 69 72 67 65 66 83 82 85 83 80 74 74 70 62 60 66 68 69 62 58 55 64 58 61 60

GFSGBSN_925_rhum_003.txt.gz
RH
84 79 80 93 93 97 98 94 91 93 92 92 91 90 91 90 92 94 93 93 96 96 93 92 81 83 95 96 77 68 60 58 71 79 78 80 83 71 75 65 60 58 54 51 47 49 52
80 80 77 81 90 91 92 97 93 92 92 93 93 93 94 89 90 94 94 95 93 95 91 85 85 88 88 96 61 57 57 55 53 77 78 77 78 57 65 62 60 58 53 48 52 48 45
75 81 76 75 79 88 89 91 95 94 93 96 94 95 95 82 94 91 92 93 92 94 87 77 80 87 86 77 58 60 59 58 50 68 78 78 81 52 56 63 57 58 60 55 52 46 44
76 76 82 76 76 82 84 89 94 94 94 95 96 96 92 82 86 90 96 95 93 87 75 76 78 87 84 66 59 60 57 61 58 50 74 74 78 69 54 48 52 60 53 71 54 39 37
78 76 79 82 81 90 92 92 96 94 95 95 95 93 94 87 90 87 91 95 91 90 81 79 83 83 84 60 72 57 55 62 70 72 78 75 85 76 60 62 61 59 81 68 60 44 44
76 74 77 77 77 82 89 88 88 93 95 95 92 89 89 76 89 89 98 99 84 88 88 83 83 88 81 76 68 63 58 50 72 82 80 81 95 87 75 76 91 71 66 55 55 42 42
76 74 77 76 78 80 77 90 91 94 95 95 87 84 82 78 84 91 97 100 98 96 84 81 80 75 69 62 66 68 62 60 65 86 86 85 89 95 76 71 61 55 53 52 56 40 39
74 76 78 75 78 82 80 89 94 93 95 96 84 81 87 83 88 96 100 94 74 64 88 76 74 69 65 70 80 69 59 67 85 87 72 81 92 74 71 73 61 59 59 59 51 42 40
78 75 76 77 78 82 85 86 85 77 92 92 82 82 88 73 91 99 99 87 72 70 85 84 70 78 77 66 76 76 60 65 81 67 73 79 79 61 68 82 74 63 63 60 60 49 43
74 73 74 82 81 86 86 91 93 78 77 85 81 79 81 77 98 99 100 95 85 78 100 90 91 73 72 72 82 64 58 62 74 64 62 85 73 69 73 76 72 84 52 52 50 58 65
77 74 77 87 84 85 88 90 96 97 77 76 73 80 80 82 97 97 96 93 92 87 97 82 84 59 70 66 69 83 58 61 79 63 65 89 84 76 82 74 68 75 60 59 51 53 50
78 80 82 81 86 80 90 91 94 100 97 88 86 72 80 86 98 92 99 100 91 99 96 98 81 89 86 77 70 76 68 66 64 59 55 89 71 74 69 66 64 49 57 62 52 50 61
78 81 83 84 85 86 90 94 91 98 100 100 90 84 90 82 96 96 99 92 100 98 91 98 94 85 75 86 77 77 78 81 94 89 82 89 86 85 84 65 55 51 71 98 96 74 64
78 81 85 88 85 88 90 94 94 94 97 99 98 93 90 88 95 96 89 96 99 83 87 73 78 78 80 74 84 77 78 88 86 78 71 97 99 73 77 81 73 74 72 78 76 69 59
81 82 86 85 84 86 90 92 99 93 98 100 95 94 96 87 100 99 93 100 89 84 78 78 77 81 77 71 80 82 82 74 78 85 64 79 84 52 56 51 58 78 80 48 62 63 68
78 83 89 83 85 87 91 92 100 94 99 96 92 95 96 91 100 93 99 99 93 87 70 62 75 70 80 76 99 78 83 61 76 72 62 69 69 52 35 40 35 56 46 74 59 66 71
73 80 90 82 82 89 91 91 100 95 98 94 100 99 95 100 96 97 100 97 90 79 56 62 75 92 67 86 95 87 78 78 76 70 60 52 58 58 39 44 48 52 75 57 53 61 64
80 79 87 85 83 88 92 93 98 97 100 90 96 94 99 100 98 94 96 88 82 69 66 73 70 74 83 73 82 80 86 75 68 62 58 48 60 66 49 48 40 40 48 49 57 61 63
99 80 84 86 84 89 90 93 98 98 100 80 93 93 100 98 98 96 91 91 86 78 76 78 70 63 69 80 92 81 80 66 65 60 64 54 65 77 62 54 57 49 42 44 52 54 62
97 92 83 88 84 90 89 93 94 98 100 83 95 98 100 98 97 99 96 92 91 84 81 80 62 58 66 75 73 90 83 69 68 55 59 49 63 69 71 63 61 64 53 49 44 57 58
99 93 88 88 84 89 89 92 94 97 100 89 98 90 84 98 97 96 94 90 91 91 92 85 77 63 62 84 86 89 87 66 61 72 55 48 57 52 50 51 52 54 54 51 50 43 47
94 99 86 88 83 84 90 92 93 98 100 98 94 86 84 76 66 98 92 98 89 94 93 83 73 62 61 74 75 89 77 69 64 53 56 54 56 45 45 48 48 56 55 51 48 50 50
91 100 95 90 84 82 83 90 91 97 100 98 83 83 70 64 60 64 72 90 92 86 85 63 63 57 63 58 58 63 56 59 57 54 55 57 50 53 57 44 40 45 46 60 51 54 44
96 100 100 96 85 86 80 86 91 97 100 78 76 80 72 60 61 56 55 77 87 65 76 54 52 52 46 51 50 45 48 48 47 54 46 60 62 56 55 46 53 40 48 49 52 46 43
98 100 100 97 84 87 83 86 91 96 100 100 77 83 70 58 59 55 59 69 66 63 59 58 60 61 48 43 71 70 62 49 56 59 53 49 50 63 60 56 46 55 55 57 51 55 60
98 100 100 100 82 82 85 86 92 95 100 100 75 77 70 62 60 50 56 51 63 74 51 58 54 58 50 60 68 88 97 65 60 56 47 54 51 52 87 64 47 42 47 47 49 57 64
99 100 99 100 88 81 84 86 91 96 100 100 78 82 78 67 72 54 55 56 55 59 62 54 53 51 61 64 66 77 66 55 61 62 58 60 64 62 72 66 61 50 49 46 57 49 65
97 98 99 100 88 82 86 86 92 98 100 100 87 83 83 82 86 80 66 64 68 56 55 53 54 52 78 74 73 76 70 68 66 57 56 57 68 69 78 71 56 53 51 54 58 63 59
98 98 98 100 89 82 84 88 92 100 100 100 91 85 90 85 87 90 81 75 70 60 66 73 62 61 60 79 84 88 80 78 73 68 67 55 50 61 61 62 66 60 56 64 57 60 59

GFSGBSN_925_rhum_006.txt.gz
RH
78 80 78 75 73 91 95 95 91 92 93 91 93 92 89 92 86 83 81 85 92 96 87 88 86 87 95 93 67 67 60 57 61 75 73 53 77 63 67 55 44 49 36 36 34 35 36
82 77 78 76 72 77 75 93 95 91 92 91 94 94 93 93 93 74 72 74 92 92 95 85 86 87 79 87 59 58 58 60 53 64 74 56 62 49 44 48 50 41 40 38 33 37 36
77 75 74 78 76 74 75 74 85 81 93 92 94 96 87 87 85 96 74 84 92 93 95 88 83 90 76 65 57 57 56 54 55 54 60 59 55 65 45 55 44 41 49 42 38 39 38
76 73 80 77 78 81 75 76 79 80 91 92 93 96 93 88 81 81 79 88 92 90 89 84 84 88 71 62 61 62 57 57 58 50 58 57 59 78 82 42 48 55 51 53 36 39 37
75 78 78 75 77 79 80 78 84 92 96 91 93 93 88 90 84 75 72 84 91 88 90 88 82 75 69 66 64 60 56 52 58 54 50 60 67 86 69 73 67 58 61 53 41 37 37
77 78 74 75 78 79 78 80 87 74 92 87 92 89 87 87 85 84 84 90 93 92 91 87 82 77 61 63 57 58 58 52 55 57 64 71 80 96 85 80 82 63 56 44 46 36 35
78 72 75 77 77 73 75 78 78 78 91 87 85 85 83 83 86 81 87 98 97 99 88 75 66 54 57 54 65 60 59 54 57 67 85 65 91 95 70 73 48 38 43 48 39 33 38
77 71 74 76 78 79 79 83 81 73 82 84 83 87 83 81 88 84 97 97 79 69 95 71 65 56 62 60 66 56 59 57 66 84 83 68 93 67 76 62 57 44 48 48 35 36 36
77 73 73 77 78 79 82 83 85 84 71 84 85 87 82 86 87 87 99 98 88 83 92 83 75 71 61 59 65 62 57 51 63 80 89 80 77 61 82 62 60 50 50 42 42 43 41
78 76 75 74 80 84 83 83 87 89 86 69 78 82 80 88 90 94 99 100 92 84 100 90 91 73 68 61 71 48 52 47 63 80 88 59 58 81 75 70 58 57 43 45 51 63 57
74 76 76 77 81 85 86 85 88 92 92 89 74 80 83 76 96 94 98 100 93 86 95 67 82 56 55 60 49 58 54 47 63 80 83 77 81 89 84 68 49 49 47 49 54 60 55
73 70 74 76 78 85 86 88 90 89 97 99 93 85 76 93 98 98 100 92 82 97 92 94 83 86 81 65 52 60 67 46 59 69 66 52 83 80 56 54 50 48 49 52 46 52 64
82 72 75 73 74 82 86 88 89 92 94 100 100 91 87 89 76 100 99 92 100 97 85 99 98 94 76 68 56 66 74 74 94 98 99 81 90 90 55 80 63 50 61 98 92 83 60
100 78 77 74 81 85 86 86 90 92 96 98 100 99 90 80 92 100 94 97 99 84 95 84 86 91 84 61 56 70 65 64 72 86 66 99 99 96 63 63 81 62 53 53 63 59 46
100 88 76 80 83 88 85 90 92 96 97 98 100 97 99 90 99 99 93 100 84 92 86 95 76 90 68 60 55 78 58 55 70 76 76 96 99 80 67 60 55 85 81 39 44 46 44
90 100 80 77 82 88 83 88 91 96 98 100 92 91 87 88 99 96 99 99 95 84 84 60 59 54 59 57 90 81 55 40 58 63 60 63 96 70 67 67 62 64 52 69 50 58 54
90 98 96 80 81 86 84 89 91 97 98 100 92 97 89 95 99 94 100 99 90 76 70 46 48 52 48 53 85 61 52 49 46 51 57 53 54 74 60 75 76 65 83 66 44 43 42
96 94 100 88 84 87 86 90 92 99 100 91 87 98 100 100 97 93 98 93 86 85 70 39 40 40 39 48 69 86 51 57 34 52 64 57 40 85 65 46 43 47 52 50 56 54 43
97 82 99 92 90 87 88 88 92 100 100 80 77 93 100 89 98 96 86 90 86 84 65 45 54 46 40 49 74 73 57 40 44 57 57 43 44 63 75 58 46 56 48 49 38 37 43
97 79 96 100 94 87 91 88 92 99 100 84 78 95 99 98 88 96 94 91 93 71 56 55 54 53 54 54 45 57 60 59 59 50 60 44 44 38 51 47 42 53 46 47 48 50 41
99 91 90 100 91 89 92 90 92 98 100 82 79 80 76 91 95 96 95 89 88 89 74 78 61 56 46 61 70 65 57 70 58 63 59 52 47 44 44 42 39 42 48 43 46 42 43
99 95 98 93 100 88 90 88 92 98 100 93 69 75 73 73 78 90 96 94 90 93 83 88 93 56 49 55 58 70 70 64 68 63 58 49 53 40 44 48 41 42 40 44 44 40 35
96 95 96 97 99 92 91 89 90 96 100 93 82 79 65 55 57 80 88 92 89 84 93 89 74 57 57 54 44 49 51 48 50 57 61 52 47 46 49 41 42 52 42 41 38 33 32
95 99 96 98 98 95 88 91 87 94 100 84 76 69 67 53 54 58 72 90 96 87 91 75 54 54 48 44 42 44 49 48 45 45 44 52 48 49 57 43 64 36 39 32 36 32 30
95 98 99 98 99 99 86 88 85 92 100 100 85 76 68 59 47 52 74 91 79 71 71 55 57 56 41 42 51 59 58 78 60 52 48 45 78 78 59 79 38 36 44 39 43 39 35
94 99 97 98 99 100 86 85 85 90 100 100 99 78 68 57 46 50 56 82 91 80 57 57 54 51 54 50 60 85 95 81 87 71 51 63 82 86 78 57 49 37 42 36 34 32 38
96 97 97 97 98 100 86 83 86 89 99 100 91 78 72 63 54 51 48 69 80 82 62 54 55 56 72 67 69 78 68 50 69 74 85 64 60 86 60 71 40 38 41 42 39 39 48
94 96 98 97 98 100 90 84 86 91 99 100 96 83 82 69 69 77 66 54 60 66 70 52 61 65 89 81 66 69 67 48 47 45 52 60 55 54 65 87 85 46 47 44 47 51 47
92 93 98 99 98 98 95 85 85 92 98 100 98 90 91 79 79 90 84 78 69 56 66 72 67 55 81 84 67 66 60 59 46 49 54 46 42 44 42 45 58 53 50 51 45 47 47

GFSGBSN_925_rhum_009.txt.gz
RH
80 75 78 82 78 71 78 90 88 80 84 90 91 93 93 91 93 92 93 88 80 80 94 88 86 86 84 78 61 64 58 55 53 71 64 51 43 49 64 46 46 45 34 29 28 26 28
88 72 78 77 79 77 68 74 90 94 88 91 91 93 95 94 96 94 85 86 91 85 77 90 90 85 76 74 47 51 55 53 50 53 63 57 43 35 42 45 45 40 36 33 29 30 29
92 81 73 74 78 79 76 74 69 87 88 88 91 93 92 84 90 96 96 89 92 79 74 88 89 86 65 56 44 47 48 46 45 44 45 54 46 41 40 55 34 39 44 37 34 30 30
93 78 73 74 76 77 80 81 74 71 80 80 90 94 93 85 85 83 90 95 92 82 83 83 81 78 83 51 50 50 48 46 45 44 43 44 48 44 55 60 57 44 50 64 37 32 29
88 84 76 81 80 76 79 80 82 78 79 89 92 95 94 88 79 85 76 81 86 90 92 86 78 74 68 56 56 48 46 42 40 45 42 43 49 60 63 96 85 65 66 59 45 29 32
91 89 82 78 79 74 76 78 81 82 87 83 95 90 78 81 81 80 81 83 92 92 91 87 70 73 53 55 46 50 48 47 41 41 45 47 65 78 77 84 91 68 68 45 50 31 33
93 89 85 77 74 75 76 76 78 80 77 79 86 86 78 74 80 92 89 87 90 97 97 84 68 51 46 43 50 54 47 48 45 46 66 55 84 87 67 60 69 51 57 45 38 29 32
84 77 77 75 74 76 77 76 79 81 79 77 88 86 80 78 76 87 94 92 75 71 95 75 57 56 47 52 58 52 47 54 53 65 53 71 90 56 46 57 64 59 50 43 35 32 34
81 73 73 76 73 78 78 79 78 79 82 82 84 83 79 78 86 93 98 82 89 76 96 88 78 67 52 56 58 51 47 49 48 58 56 76 72 49 46 66 76 63 65 44 43 36 34
93 76 70 77 74 78 79 81 82 82 85 91 83 84 78 87 90 72 81 90 98 95 100 88 94 84 72 76 86 49 45 47 50 56 52 66 58 71 50 67 79 72 54 37 40 46 51
99 100 86 75 76 76 81 84 84 84 84 93 92 76 80 80 71 87 96 100 99 90 96 66 93 67 68 87 48 47 38 50 59 56 87 78 74 81 63 71 71 72 46 40 45 46 59
88 98 99 86 72 74 80 84 87 87 91 93 99 87 81 95 90 83 98 99 86 98 92 89 82 92 86 90 60 44 45 43 43 55 88 60 61 67 58 63 81 63 52 55 50 50 62
83 97 99 96 78 69 76 81 85 85 90 92 100 100 85 71 65 97 92 88 99 97 80 98 98 94 90 94 73 58 65 72 90 98 99 87 95 84 74 94 92 72 77 92 79 76 52
99 96 98 100 95 72 72 82 86 87 89 95 99 100 95 77 85 99 93 98 98 68 84 91 95 96 100 82 63 54 65 73 64 78 98 99 97 90 72 92 92 83 76 56 63 57 44
76 93 96 85 100 86 74 85 86 87 91 100 98 100 100 94 89 99 95 100 90 83 89 95 95 100 100 91 43 47 58 66 53 70 100 87 91 76 84 72 65 81 77 39 41 34 37
94 100 89 96 100 91 85 87 86 89 94 100 98 97 91 88 89 95 99 95 95 78 90 86 69 59 69 69 51 54 66 55 49 51 72 91 98 88 92 75 83 70 41 56 40 50 46
96 92 95 94 99 94 91 88 86 89 96 100 90 94 71 86 99 98 97 96 91 77 81 82 49 46 40 45 47 56 54 37 39 41 71 92 95 94 92 82 87 90 68 54 36 37 38
96 97 99 96 97 98 97 89 86 91 99 100 87 96 99 99 98 94 96 95 84 84 84 65 33 34 33 34 48 53 46 35 28 42 91 79 93 100 74 46 50 63 62 45 45 48 37
92 97 97 86 81 95 100 88 91 97 99 88 86 76 100 91 98 97 79 93 88 89 83 56 42 33 28 34 47 53 48 32 36 36 74 55 67 100 94 61 64 74 50 47 42 36 39
89 96 99 85 96 93 100 88 91 98 99 71 70 97 100 98 82 90 94 94 95 76 71 47 41 32 36 39 35 49 52 39 41 36 60 50 48 49 49 45 59 73 61 45 44 46 40
89 96 98 92 98 99 100 89 92 96 100 95 75 86 71 96 94 92 92 88 95 93 72 49 61 42 43 41 41 50 47 47 42 44 48 55 50 37 31 33 40 45 52 52 51 44 43
88 92 96 99 85 89 100 87 92 95 100 97 76 57 76 84 73 80 92 92 95 86 70 74 86 48 39 39 35 41 44 46 56 54 48 50 57 41 43 40 35 40 39 42 44 42 39
85 92 98 89 99 97 99 95 92 96 100 98 85 65 60 54 59 71 76 84 86 81 86 61 73 60 48 36 32 38 34 42 44 48 60 59 62 46 48 40 43 50 37 37 38 35 34
84 92 95 97 97 99 98 98 92 96 99 88 72 61 61 56 42 47 62 83 92 89 85 79 88 88 47 36 36 41 47 53 47 47 43 56 56 49 60 42 64 34 32 30 33 33 31
84 92 94 98 97 99 94 100 91 95 97 99 79 73 61 58 40 41 54 81 87 89 90 85 78 59 42 42 56 78 84 84 64 59 52 55 61 66 67 68 49 39 34 34 36 36 28
83 90 92 98 98 98 95 100 91 91 94 100 97 84 64 65 41 41 58 84 92 90 86 78 54 42 42 58 67 91 100 96 92 82 73 64 62 75 72 59 62 35 35 29 29 41 24
80 90 92 98 95 98 96 100 92 90 91 100 99 98 75 65 45 44 47 77 93 76 65 58 54 56 74 81 74 70 70 62 88 96 95 97 96 96 96 87 48 33 34 31 38 41 35
77 91 90 98 97 98 94 97 98 87 92 100 98 93 73 64 58 61 53 62 90 92 58 63 63 66 92 80 70 65 54 49 55 61 78 82 89 94 96 92 82 36 41 40 46 41 35
78 93 92 98 97 97 94 96 98 91 93 100 100 95 91 83 78 80 74 76 75 72 73 53 71 64 77 91 62 59 62 46 42 59 44 65 44 44 45 52 47 38 46 42 40 41 40

GFSGBSN_925_rhum_012.txt.gz
RH
88 82 84 74 83 80 81 74 76 82 85 95 92 92 93 93 92 94 92 93 92 91 94 93 88 84 83 71 58 55 53 49 55 71 71 60 57 48 62 51 48 51 44 35 31 31 30
85 91 89 80 71 81 79 77 73 72 87 93 97 93 94 92 93 94 92 88 94 93 95 89 90 86 83 77 45 47 54 53 49 50 62 62 56 42 43 48 55 46 45 46 37 31 30
92 88 91 85 72 75 80 79 77 74 70 94 97 94 91 90 87 92 96 94 92 93 94 95 93 92 70 59 41 42 47 50 48 43 42 58 57 62 41 47 42 43 55 46 44 35 33
96 94 88 90 72 76 78 79 80 79 74 72 91 95 89 87 87 86 88 84 89 88 81 91 81 79 78 57 54 46 45 45 45 42 41 41 44 54 60 50 61 65 56 76 47 39 35
95 94 90 86 77 75 82 78 79 80 82 76 81 90 93 83 86 84 84 75 72 73 90 86 83 73 68 52 56 50 46 44 40 38 40 39 41 59 61 71 87 75 78 72 63 40 37
99 95 89 85 84 87 82 77 76 80 81 83 81 84 91 83 85 84 85 82 72 77 83 87 70 72 60 52 48 50 47 45 42 38 43 48 56 75 78 80 91 77 84 58 67 48 41
99 99 88 82 81 83 78 76 75 77 78 84 80 74 88 80 81 84 94 89 87 93 95 75 66 51 43 44 47 46 46 44 45 49 64 54 76 86 77 70 66 61 58 67 46 43 43
99 99 99 83 82 77 77 75 77 77 79 81 78 76 85 78 80 82 93 83 72 83 94 82 64 59 46 49 52 47 44 54 59 73 57 69 84 59 54 57 64 62 74 76 51 41 42
89 99 98 99 85 77 76 75 77 77 78 82 83 76 84 76 84 86 93 84 79 83 99 90 79 70 59 52 59 51 47 53 59 68 64 76 65 56 51 54 64 63 67 78 71 46 49
86 85 97 97 100 87 75 74 79 79 79 84 87 80 84 83 86 77 82 78 83 87 100 92 93 81 67 76 85 48 44 51 57 63 58 64 51 52 59 59 55 67 54 64 74 82 73
86 89 85 98 95 98 88 75 78 80 81 85 92 85 83 72 80 74 92 87 95 90 98 80 90 74 68 89 68 66 54 66 66 58 56 78 67 58 64 76 54 65 55 67 70 81 80
83 92 88 99 86 98 100 84 74 79 84 87 93 96 81 86 83 92 85 99 84 99 94 89 87 93 92 87 83 70 64 61 54 64 58 71 56 58 60 55 66 53 68 84 79 76 90
85 85 90 95 99 91 97 95 76 78 86 86 95 100 84 91 79 96 89 87 99 99 68 96 97 85 81 93 93 90 81 77 80 94 86 92 87 66 75 86 61 66 88 96 100 99 92
88 87 94 96 87 91 100 100 81 75 85 88 95 99 97 88 90 89 83 95 99 57 75 90 94 94 100 92 96 94 95 76 62 74 85 86 84 87 79 86 75 81 92 100 97 98 57
84 91 94 96 92 87 99 96 85 77 87 88 97 100 100 90 92 86 89 99 79 66 87 95 97 100 97 94 94 95 81 78 61 58 98 97 95 80 69 63 74 80 99 84 83 40 50
87 89 96 95 99 90 98 99 85 84 93 93 99 100 100 92 99 96 98 94 76 75 87 92 99 79 74 85 89 74 69 51 57 51 60 93 100 82 82 76 82 86 75 98 83 58 68
84 87 94 96 98 88 94 100 97 98 96 100 95 99 90 95 99 98 98 91 72 70 83 95 84 60 53 60 60 52 46 43 48 50 77 93 98 96 81 95 90 97 97 82 66 58 56
75 84 96 99 95 87 96 87 100 97 96 100 96 98 98 100 99 97 97 81 86 88 83 88 86 82 40 43 52 54 57 56 39 49 86 90 97 100 99 74 74 77 82 59 56 60 55
68 81 99 99 99 92 82 99 98 95 100 94 96 97 100 90 98 97 84 88 92 92 88 90 71 44 30 34 44 41 53 40 53 64 78 94 99 100 99 94 94 92 77 57 56 51 56
66 76 96 99 99 88 86 96 100 95 99 81 96 98 100 99 88 87 89 96 97 85 88 81 58 40 36 36 33 53 47 45 43 54 67 86 81 99 98 73 82 89 72 57 59 62 49
67 72 86 96 99 95 99 97 100 97 100 79 94 89 80 98 96 94 90 91 96 96 86 74 53 46 38 43 38 40 50 43 46 46 60 83 93 88 61 62 62 64 65 61 60 55 51
65 71 81 93 99 97 96 88 96 98 100 94 96 83 87 85 71 81 90 92 95 91 93 76 70 61 60 44 38 44 43 48 48 51 47 52 76 65 49 43 50 63 60 58 54 48 47
62 69 78 92 97 96 99 90 97 99 99 99 94 74 70 69 81 88 84 86 87 88 85 79 66 58 67 41 34 28 32 37 43 54 62 62 72 64 58 43 45 54 48 54 54 49 48
63 68 79 93 95 95 98 92 95 98 100 87 82 77 86 85 52 62 59 64 83 88 89 82 72 65 64 44 38 54 59 54 54 50 50 68 71 66 63 47 71 40 34 35 41 40 40
64 67 79 90 92 98 94 94 97 100 100 93 74 86 94 87 58 51 42 66 89 91 96 90 82 69 71 59 67 84 88 84 73 62 69 52 65 78 75 75 54 44 35 37 43 43 35
64 68 78 88 92 99 98 94 97 100 97 100 91 79 93 85 61 49 51 72 91 96 95 91 72 76 81 65 82 94 89 97 97 87 70 71 78 90 92 78 76 42 36 32 34 53 41
64 69 79 90 93 98 96 90 96 100 96 100 99 94 94 96 66 52 57 66 90 91 93 83 81 85 86 90 81 89 91 80 98 95 95 91 93 96 90 91 75 38 36 32 49 51 44
65 70 79 91 92 97 96 92 96 100 95 100 98 98 90 92 70 63 56 60 94 94 84 78 87 85 95 92 92 83 68 72 84 78 87 83 97 96 97 99 93 40 42 46 52 41 38
67 71 79 92 93 96 96 99 94 100 98 100 100 99 99 99 89 78 71 74 77 92 86 71 82 69 84 90 92 69 65 52 61 91 69 84 75 78 79 75 50 44 51 43 44 46 49

GFSGBSN_925_rhum_015.txt.gz
RH
96 92 86 87 94 86 72 79 81 76 76 82 93 95 94 94 95 88 93 86 90 94 92 90 88 84 81 87 83 55 48 49 55 71 74 77 79 71 69 65 64 70 58 50 45 44 40
99 96 93 91 84 86 76 74 80 78 74 75 95 97 95 93 89 88 87 85 88 88 85 77 83 85 86 95 51 50 53 51 52 68 75 75 74 62 65 58 58 56 54 52 46 44 42
99 100 97 95 88 82 79 74 78 80 80 75 88 94 91 85 87 86 87 95 92 88 87 82 83 89 88 74 47 48 47 53 52 49 46 67 64 69 68 66 52 57 70 56 55 47 50
97 99 98 97 91 83 84 74 77 80 82 78 74 85 89 84 81 81 82 87 94 91 84 80 73 91 93 56 56 50 50 50 49 46 45 42 44 53 69 64 64 75 70 81 55 51 47
83 89 98 99 97 90 81 83 75 80 81 82 80 81 88 87 75 85 81 86 76 79 78 84 79 86 85 52 63 59 51 46 44 42 41 40 42 59 65 79 85 85 87 84 69 50 50
81 82 93 99 96 96 90 86 80 83 77 82 84 81 86 89 75 82 86 92 77 74 82 94 81 75 68 57 53 56 52 49 48 45 48 54 63 81 90 88 86 78 79 76 82 59 54
76 80 82 88 93 99 93 90 82 80 75 79 80 88 84 91 74 79 90 87 88 92 94 87 78 60 44 50 47 52 51 50 50 56 72 63 85 84 82 78 72 66 74 77 70 53 57
80 78 77 85 92 100 100 89 79 78 76 76 77 86 78 91 72 81 91 88 76 81 94 81 72 66 53 49 60 52 48 62 64 77 73 76 87 67 62 67 75 78 88 84 67 60 60
75 74 76 85 88 92 93 98 84 74 77 76 80 84 82 88 79 91 90 77 80 78 93 81 81 78 66 58 66 60 52 58 69 82 79 84 68 56 61 66 76 78 88 80 74 62 64
71 76 80 78 88 85 99 98 98 82 75 75 81 87 88 84 90 86 96 72 86 85 100 85 91 83 71 70 81 52 48 54 67 82 73 79 58 61 68 71 66 82 60 61 66 72 89
72 77 78 80 84 87 95 97 100 98 80 76 82 90 87 62 68 85 87 82 88 91 97 79 86 70 69 84 73 72 52 60 77 70 74 80 71 71 71 66 60 70 52 57 59 72 80
73 77 81 86 88 89 94 96 98 95 94 78 85 91 87 68 83 85 84 86 80 91 94 91 85 91 90 89 76 71 65 62 75 89 79 71 61 66 61 53 53 63 69 71 75 80 96
65 76 85 85 92 90 96 98 97 91 90 82 89 96 88 89 90 92 81 85 96 96 61 94 89 84 77 82 86 86 93 96 98 99 100 97 93 72 69 79 71 76 84 86 91 96 88
62 73 85 86 91 95 100 99 79 97 90 86 92 99 96 90 86 82 73 95 98 67 76 81 84 75 97 75 88 86 98 100 94 99 97 96 90 88 75 76 73 84 80 91 87 84 73
68 76 88 87 92 91 96 98 84 100 92 93 98 100 100 100 94 81 88 99 85 67 77 94 96 100 100 92 85 93 92 99 73 90 88 99 93 70 67 63 62 76 90 64 96 86 99
64 70 78 88 93 97 98 81 78 93 95 99 100 99 97 96 96 85 96 91 80 67 82 92 100 96 89 80 93 98 95 81 74 58 61 81 96 65 71 68 70 72 63 94 100 99 94
62 61 66 84 96 100 86 95 91 100 96 96 99 99 100 100 98 96 99 92 72 70 78 95 97 99 93 86 90 90 76 60 64 57 54 71 96 91 95 97 83 91 93 79 93 87 90
62 64 66 81 91 99 98 98 95 99 100 100 97 99 100 100 98 97 98 79 69 80 76 88 93 94 86 64 84 69 68 46 53 58 66 88 99 99 88 80 72 60 80 72 93 99 90
62 63 67 77 92 97 96 95 100 98 96 96 95 99 100 87 99 99 86 79 76 87 88 93 94 79 65 53 77 59 64 50 67 70 88 94 99 94 96 94 84 80 78 66 70 98 78
65 63 66 73 89 99 99 96 88 88 95 83 97 97 99 100 94 91 92 89 93 85 92 87 86 70 70 59 54 53 52 56 54 65 77 90 98 99 98 95 83 83 72 80 93 98 66
67 59 66 72 86 99 94 97 91 87 98 72 95 95 82 98 96 93 83 87 94 97 92 87 88 86 64 53 44 56 49 49 59 65 80 91 100 98 94 86 78 76 80 91 98 72 60
68 60 65 71 84 96 98 96 90 97 99 88 98 96 85 87 82 95 92 94 89 93 92 91 91 60 60 62 46 50 55 56 56 74 90 87 99 95 93 73 73 81 84 69 61 57 49
69 60 65 71 81 91 98 87 99 99 98 98 94 81 76 90 84 92 90 86 85 81 86 82 84 75 73 66 58 59 41 42 44 56 63 72 83 93 69 76 71 82 70 67 59 52 48
68 61 65 69 83 91 94 95 98 97 100 95 83 82 88 92 84 84 81 81 86 84 84 82 88 89 68 68 58 65 65 62 59 62 57 70 78 73 79 59 72 43 38 52 57 52 51
66 62 63 75 81 90 97 96 97 97 100 87 76 86 94 94 76 78 76 58 84 87 92 90 88 75 83 75 75 92 93 82 76 71 64 62 72 82 81 84 58 47 37 43 51 51 47
72 64 62 76 81 91 97 95 97 95 99 96 75 78 94 90 80 61 61 79 88 91 95 95 86 79 87 74 89 99 97 98 92 83 71 72 77 81 94 81 75 46 38 34 36 56 45
76 70 62 72 81 90 97 94 98 93 98 99 96 82 92 95 76 66 67 73 86 92 97 95 91 91 88 92 93 97 94 86 96 86 95 90 87 90 89 94 81 51 37 36 48 49 49
78 76 67 71 79 90 94 95 96 95 97 100 99 95 90 95 81 65 60 70 92 93 94 95 95 96 98 97 95 93 91 92 92 82 84 87 96 98 93 97 89 43 37 36 48 44 59
80 71 70 74 78 89 92 94 94 97 97 100 99 99 96 96 92 80 71 66 65 80 92 95 95 89 88 92 94 86 75 74 88 94 75 93 81 88 83 76 56 52 49 46 49 54 61

GFSGBSN_925_rhum_018.txt.gz
RH
98 100 100 99 97 95 90 88 74 76 81 83 78 90 97 94 94 90 88 81 82 91 90 81 86 82 81 96 87 53 54 54 72 78 86 84 86 79 76 68 67 77 69 60 59 57 53
85 91 96 99 100 94 93 93 85 72 80 79 82 78 91 94 94 90 79 82 76 80 80 82 84 82 86 92 52 46 56 53 55 72 83 81 84 74 75 71 70 60 60 61 55 55 52
83 84 80 86 99 98 92 84 82 77 77 83 80 81 84 88 90 88 80 85 86 84 86 88 91 86 95 79 51 51 52 57 51 61 65 75 75 80 74 74 60 61 76 67 60 58 58
82 82 82 84 88 96 99 91 78 82 75 84 84 81 84 90 83 88 84 92 93 91 83 77 84 89 93 53 53 48 46 52 54 55 48 46 53 71 65 64 71 76 76 88 57 57 54
74 80 82 81 83 90 99 100 89 79 74 80 78 81 84 84 84 77 83 87 84 73 72 87 86 88 88 54 63 52 56 56 47 46 45 44 43 57 62 85 87 86 96 84 75 54 56
63 68 79 78 80 79 93 99 100 89 80 78 80 82 84 81 84 76 85 90 90 78 73 91 82 90 75 63 55 57 55 53 49 47 50 54 62 78 89 89 92 77 91 80 75 65 61
73 72 72 78 75 80 85 94 98 99 85 73 75 79 84 84 89 79 93 97 90 97 97 88 79 73 48 53 51 55 56 53 54 58 77 64 86 87 80 81 80 83 78 84 73 60 72
71 79 73 76 77 82 77 88 95 99 91 81 74 78 84 85 92 79 89 91 76 69 95 83 79 71 57 58 61 59 54 67 72 87 76 78 88 63 64 69 81 84 92 89 70 59 63
57 54 79 77 78 81 86 83 86 95 100 86 77 73 82 81 93 91 96 82 76 74 95 81 82 81 72 64 69 64 57 65 75 84 76 77 64 59 67 75 84 83 89 83 83 66 59
58 59 58 78 78 80 84 86 85 95 92 98 82 76 84 94 93 97 94 83 79 77 92 86 88 80 75 69 79 54 51 57 71 83 75 74 65 67 70 78 76 91 70 72 74 79 87
64 59 65 72 75 88 87 86 92 95 94 98 82 85 87 83 66 94 74 84 82 90 83 70 85 69 71 78 72 72 51 58 88 84 80 86 83 80 79 70 63 77 60 66 71 81 86
65 63 65 76 78 94 89 86 95 96 84 93 94 94 89 77 81 75 73 78 87 92 90 93 83 90 90 87 78 76 69 61 82 88 76 73 63 65 63 55 60 66 68 68 74 75 96
65 66 66 74 82 84 92 88 98 97 95 98 100 98 95 80 91 78 88 86 96 94 60 96 89 89 79 82 82 81 85 96 99 99 98 98 95 76 69 70 62 65 78 91 98 97 83
68 60 63 61 65 83 94 86 90 99 94 94 100 99 93 78 76 86 81 90 90 64 81 73 76 76 87 72 91 80 93 96 87 99 100 97 98 96 73 71 78 76 74 89 91 99 72
70 65 64 64 62 90 97 96 98 98 94 96 100 100 100 91 84 84 87 99 83 68 78 77 81 92 94 86 81 87 90 90 65 91 96 98 95 72 70 60 60 86 94 61 79 80 89
73 71 69 65 64 85 98 100 99 97 96 94 100 99 97 91 88 90 96 96 75 76 84 80 88 91 88 79 88 93 86 69 72 84 72 83 97 74 75 69 68 75 62 91 95 98 96
68 71 66 64 66 78 94 99 98 96 84 81 99 97 100 96 94 97 99 97 74 80 76 85 90 95 86 87 80 80 79 72 75 75 81 79 85 91 87 96 76 85 94 75 66 75 99
68 68 66 61 68 79 97 96 93 98 86 96 98 100 100 100 98 97 100 80 64 82 76 81 84 92 93 87 93 93 86 65 62 59 88 69 89 96 86 61 64 74 71 72 80 76 70
76 67 66 61 69 79 95 98 96 94 89 99 94 98 100 88 98 98 88 79 77 84 82 90 94 87 75 84 84 78 64 49 62 58 66 75 100 97 95 88 90 98 82 68 65 89 94
80 68 67 60 68 80 91 99 98 98 100 100 96 98 100 98 89 93 86 86 88 78 77 85 90 81 84 83 65 61 63 56 62 62 78 87 100 98 90 100 88 99 80 72 70 73 72
81 70 63 62 66 79 89 98 98 99 99 98 99 94 84 94 97 86 84 81 88 94 88 87 95 93 90 88 67 67 56 59 65 76 88 94 100 100 97 94 97 73 70 73 82 79 88
82 72 65 64 64 80 90 99 97 98 97 98 98 96 86 84 83 90 88 92 85 85 89 95 97 81 86 92 55 50 55 58 71 86 90 95 98 100 99 89 94 88 72 77 76 89 93
82 72 64 63 70 81 90 97 94 90 98 100 94 81 80 85 85 94 96 89 86 76 82 80 85 90 89 80 63 56 59 47 60 78 93 97 100 100 100 89 88 97 78 75 75 79 88
81 73 69 62 68 80 88 92 93 97 100 100 88 85 87 94 88 86 82 88 89 84 86 86 86 94 68 73 69 68 68 64 56 68 65 86 84 80 94 90 80 48 69 71 81 80 79
78 75 72 66 62 78 87 94 96 98 97 100 83 84 90 94 79 80 84 86 79 86 85 82 89 77 76 76 84 80 84 84 76 75 70 64 73 90 93 90 62 45 45 66 73 66 55
78 80 74 71 62 75 84 95 94 93 98 99 88 76 90 88 84 66 74 66 91 90 91 92 91 87 91 81 94 96 98 88 91 86 71 79 74 84 96 92 75 49 39 36 38 58 45
79 83 74 68 65 77 83 92 93 94 95 100 85 81 85 93 78 70 76 66 86 86 93 96 94 98 92 95 92 99 92 76 93 84 95 93 88 92 89 93 83 58 42 39 52 50 47
80 81 79 70 69 77 82 92 92 97 95 100 98 84 85 94 81 61 59 80 89 88 93 92 99 97 99 97 94 91 91 94 85 77 88 85 93 93 91 95 91 50 38 39 46 57 63
80 83 82 74 75 76 80 91 92 96 94 100 99 97 94 96 91 83 71 62 58 72 89 97 94 91 89 93 92 88 97 92 84 92 76 89 80 90 85 82 61 52 47 49 51 61 65

GFSGBSN_925_rhum_021.txt.gz
RH
79 84 86 88 88 95 98 99 78 84 74 78 86 86 83 94 94 91 95 96 88 94 89 81 80 82 80 93 87 53 61 64 78 86 87 86 87 79 79 73 70 80 75 65 62 65 65
82 83 84 84 86 92 94 97 99 79 81 72 80 87 84 84 93 88 89 93 87 93 86 78 82 88 85 89 46 43 58 57 69 86 90 87 87 80 84 77 72 65 64 64 59 60 61
72 75 77 81 82 82 84 93 97 99 80 78 75 82 83 80 88 83 84 92 96 92 90 80 89 86 93 76 53 54 50 54 55 69 79 86 81 81 80 82 66 67 80 70 64 59 63
66 65 78 77 78 80 80 76 97 95 99 80 73 78 84 85 87 83 88 93 90 92 86 76 94 88 87 50 57 53 54 50 50 57 51 49 69 82 81 63 70 76 80 91 58 62 59
64 68 72 76 79 83 78 81 79 95 98 98 75 69 72 83 87 83 78 82 89 89 78 87 91 87 83 54 68 46 53 53 51 55 52 48 47 60 60 83 84 85 92 86 73 58 59
60 57 59 71 77 80 80 83 75 82 94 97 88 74 75 75 86 82 70 84 95 82 78 91 83 89 75 62 59 58 54 53 50 50 50 54 63 77 82 89 85 82 98 87 80 62 63
64 57 66 55 70 74 79 76 84 80 87 96 99 80 81 75 85 81 83 100 89 93 96 87 78 78 53 55 54 61 58 57 55 60 77 66 87 92 76 86 85 91 92 88 75 61 72
61 57 65 59 58 75 75 80 82 83 86 91 97 89 83 81 84 86 90 88 77 66 92 82 81 73 62 62 65 58 55 66 74 90 79 81 95 75 66 72 78 85 89 86 75 65 67
64 58 61 67 61 64 77 81 81 83 84 91 94 100 88 83 91 98 96 82 72 70 90 75 86 83 78 67 71 67 60 69 80 93 91 89 67 59 66 74 81 86 91 76 81 69 66
64 63 64 61 65 75 81 89 90 84 92 98 97 92 96 88 98 100 95 86 75 71 95 78 92 83 78 70 80 55 55 61 72 88 84 86 66 64 70 78 78 85 72 74 77 85 89
70 69 67 63 66 68 80 93 94 88 96 98 100 82 100 100 93 97 79 90 76 67 86 71 88 71 72 79 70 73 56 59 75 83 87 88 91 76 79 73 69 72 62 76 81 90 93
74 72 74 72 61 60 69 87 90 96 91 81 97 88 99 95 76 79 70 83 76 89 93 87 87 88 90 84 78 75 71 60 75 84 78 76 68 73 74 61 63 64 72 77 76 86 93
70 71 73 70 68 74 72 86 95 94 88 93 83 91 100 83 90 74 83 85 97 96 63 93 80 87 81 85 83 83 90 93 93 99 96 98 95 80 74 77 64 70 88 97 97 95 83
75 75 74 70 70 73 73 87 98 93 98 99 89 96 97 84 75 85 80 91 88 67 89 72 81 87 91 78 79 80 86 90 85 98 100 98 98 97 81 79 79 83 87 94 90 93 82
81 81 74 69 71 66 78 87 96 100 93 96 90 93 98 100 76 81 83 99 83 67 78 77 70 89 88 74 77 88 88 76 72 86 94 96 94 90 83 68 78 100 98 72 85 84 95
81 81 77 66 66 65 72 90 98 99 98 95 91 98 98 98 93 80 90 86 76 76 75 69 87 77 78 80 88 86 77 74 78 68 66 81 97 79 80 70 80 90 68 96 99 96 94
80 81 77 67 65 65 73 92 99 97 96 98 89 96 98 100 84 94 98 92 78 80 74 82 84 84 72 82 81 83 72 69 73 78 74 77 90 86 94 95 87 91 95 91 73 85 91
81 81 80 70 61 67 75 89 96 97 98 86 93 100 100 98 97 95 100 86 66 90 76 80 78 74 86 80 83 85 93 74 68 83 88 73 92 96 79 69 62 64 69 77 88 84 73
82 81 79 72 62 67 77 90 99 98 98 98 98 97 99 87 99 99 92 81 76 90 82 82 83 78 73 83 89 89 79 58 68 75 88 78 99 96 98 82 83 99 73 64 68 81 72
82 81 81 73 62 67 81 91 96 98 100 100 96 100 99 94 89 81 86 84 88 73 80 81 89 82 87 85 77 78 77 55 58 60 61 68 100 98 89 96 88 97 89 80 78 88 72
82 80 80 75 60 72 83 90 97 97 95 99 96 96 92 97 97 78 75 78 83 94 82 78 92 90 94 93 76 91 72 60 67 65 81 93 100 99 96 95 99 97 78 78 93 74 72
80 76 79 73 62 67 82 90 99 83 94 100 97 96 87 86 85 84 84 95 85 80 90 96 97 86 87 94 69 61 61 61 73 87 88 96 99 100 96 91 96 100 95 80 76 65 59
80 75 78 70 68 60 80 87 97 90 98 100 98 87 82 86 86 89 90 85 83 74 80 73 87 94 86 83 75 69 69 63 57 78 94 99 100 100 100 95 98 100 86 76 69 64 65
79 77 79 70 70 63 80 86 92 98 100 100 94 97 90 91 83 80 81 73 88 83 88 83 80 94 73 73 72 74 82 82 70 75 75 96 99 99 100 99 97 85 81 56 58 66 73
82 78 81 76 66 63 76 85 93 98 99 100 99 97 88 92 77 78 79 86 85 83 89 85 81 77 81 87 92 89 86 76 84 76 86 77 82 96 99 97 69 55 93 88 89 86 82
83 81 80 81 69 66 77 83 93 98 97 99 96 98 88 90 85 69 76 86 92 93 90 89 90 89 94 89 94 88 97 80 78 85 82 83 80 93 92 94 82 50 49 68 68 91 65
83 81 81 85 74 71 77 82 91 94 97 100 98 93 82 89 77 66 75 78 82 84 90 93 91 98 96 96 94 98 92 81 89 76 97 93 92 96 88 87 84 60 49 53 79 55 48
80 82 81 84 81 75 75 80 89 92 95 99 97 93 87 93 80 66 61 83 94 84 92 91 98 99 99 97 96 95 88 88 90 79 78 83 81 88 85 94 89 52 42 46 48 58 62
77 83 84 85 84 81 74 78 86 92 93 98 100 97 85 89 90 85 74 62 59 68 86 97 91 96 94 93 94 92 93 94 89 93 82 91 78 83 78 80 61 54 51 52 55 62 66

GFSGBSN_925_rhum_024.txt.gz
RH
70 72 69 80 80 85 85 86 88 98 98 96 84 82 96 96 80 88 92 94 96 96 89 81 88 84 82 84 88 57 64 65 76 85 85 83 82 77 79 76 72 83 80 69 63 62 68
65 71 76 78 81 82 84 83 84 85 98 98 93 75 79 92 91 79 88 86 96 95 90 85 85 87 85 79 44 45 57 61 84 79 84 86 86 80 82 80 74 68 69 69 63 61 61
64 65 65 63 75 78 77 81 82 81 87 97 98 88 77 86 83 79 78 90 93 91 88 91 90 86 93 78 56 57 49 54 64 84 92 92 79 78 80 86 70 74 82 76 71 65 63
64 64 62 66 66 67 82 77 76 82 78 84 94 96 82 83 85 84 87 93 81 92 83 81 90 88 82 52 54 56 56 50 51 62 53 59 82 88 85 70 69 77 80 92 65 64 60
66 62 61 63 64 61 62 81 81 79 82 82 91 95 93 83 82 86 85 84 85 93 82 86 95 86 85 55 68 50 53 50 52 53 56 50 56 70 68 85 85 77 88 86 70 57 64
61 58 58 62 64 65 68 74 80 84 81 84 86 96 99 83 84 85 79 84 94 90 82 84 89 90 74 63 60 62 58 49 51 56 54 55 64 77 82 90 92 78 86 78 72 62 68
64 56 58 67 63 62 59 65 74 79 88 80 83 93 96 92 86 86 85 98 97 96 91 85 80 77 58 58 58 64 62 57 56 61 83 69 87 95 82 82 78 91 90 90 70 59 72
66 65 72 71 70 66 66 68 76 84 86 85 87 95 91 95 90 92 84 92 73 65 89 84 83 81 65 66 69 62 58 69 74 86 77 82 96 73 70 70 76 79 87 83 65 58 74
70 69 70 72 69 64 63 66 73 88 91 90 92 97 96 94 98 100 88 75 66 64 81 77 85 79 80 69 75 72 62 70 80 93 92 90 67 65 72 78 79 77 87 84 80 67 64
72 67 68 76 67 69 65 68 81 85 87 89 94 90 96 96 99 100 91 75 68 54 92 73 94 86 82 70 75 57 58 66 79 93 90 90 70 73 77 81 80 90 72 76 82 89 88
72 73 75 78 70 70 72 77 88 82 84 95 96 92 94 100 99 96 91 82 66 52 86 72 90 72 74 73 71 75 58 61 78 82 84 82 89 92 90 73 73 75 65 78 83 91 94
82 81 82 82 77 72 72 85 79 78 88 96 92 90 97 93 100 87 82 81 64 85 95 91 87 89 92 82 74 74 71 64 73 77 78 73 73 74 74 63 65 65 75 78 81 88 94
81 84 82 82 76 74 78 72 74 91 98 84 87 98 100 93 99 88 77 78 93 94 66 87 85 80 74 83 79 81 87 95 95 100 97 94 88 80 75 83 72 75 100 97 98 97 86
76 81 81 81 78 73 70 66 84 92 97 100 92 98 98 85 95 94 76 81 91 69 87 74 78 78 83 76 76 77 86 93 83 97 100 99 92 86 85 75 80 83 86 94 93 94 82
79 84 82 82 78 73 62 68 87 99 98 94 92 100 93 79 96 84 70 85 78 71 76 82 82 94 96 76 73 81 86 88 62 79 98 99 94 86 75 74 65 98 98 73 94 95 97
83 84 82 82 78 71 63 72 88 97 97 99 86 88 88 74 95 83 78 85 74 68 73 70 85 77 85 84 85 90 77 71 70 63 70 78 96 80 82 80 77 92 78 98 98 96 94
78 83 81 82 77 67 62 79 88 96 97 94 86 94 90 98 92 93 93 83 78 78 69 76 78 85 72 77 81 84 76 65 76 78 73 71 90 87 92 96 86 98 100 100 95 96 86
77 82 81 82 76 68 65 86 88 97 91 95 92 100 99 100 98 97 94 83 73 88 76 79 73 75 79 73 79 79 83 72 68 79 86 70 95 96 81 67 65 68 78 80 88 87 85
81 81 79 82 76 69 67 87 90 99 90 98 98 96 100 84 99 99 90 85 80 90 82 79 84 74 72 87 96 81 82 65 74 81 83 74 98 98 91 85 81 100 87 69 66 80 86
82 82 79 78 78 69 65 82 91 99 98 100 94 99 99 96 93 87 84 82 95 76 75 71 77 78 87 96 89 87 86 64 72 74 67 67 98 95 92 83 96 98 94 98 91 94 72
81 84 78 78 75 69 64 80 91 98 98 95 97 99 92 100 98 77 71 80 86 93 77 75 86 84 94 99 99 96 84 75 70 66 70 84 99 94 95 92 100 100 96 100 98 78 83
84 83 77 82 75 70 64 80 89 98 88 97 96 95 94 90 82 76 81 87 79 86 86 85 93 78 90 98 79 77 82 73 65 84 88 92 97 98 97 86 96 98 97 96 88 77 73
85 84 80 81 81 66 65 81 86 99 95 96 92 92 80 87 80 93 82 87 74 76 83 74 80 91 96 89 80 75 66 69 72 74 89 98 100 100 93 99 95 100 91 90 88 72 69
85 82 82 80 82 68 66 79 86 98 99 100 94 100 92 98 89 78 82 81 86 77 81 81 76 89 76 80 83 78 85 86 84 81 69 95 100 100 99 100 98 91 82 70 75 66 64
82 82 80 81 84 73 69 77 85 96 100 100 99 99 92 93 76 75 84 78 79 87 93 86 78 76 79 91 96 91 85 85 84 89 79 73 88 100 100 98 94 62 90 73 78 75 60
84 79 81 82 84 80 74 77 83 94 98 100 100 100 99 89 80 65 77 88 94 96 97 91 92 90 91 94 95 90 89 84 77 82 85 89 87 98 100 98 93 58 56 70 70 95 73
83 84 80 83 84 83 80 75 80 91 97 100 98 100 99 92 79 71 81 88 80 86 88 92 88 95 93 97 100 93 88 81 89 91 97 98 97 96 96 87 81 62 56 70 87 63 56
87 78 77 85 84 82 83 75 78 92 96 99 97 98 97 91 81 68 63 87 92 84 93 91 94 98 98 99 96 89 91 90 91 82 88 90 88 90 84 93 88 53 54 60 55 57 62
88 84 82 86 85 84 80 76 83 92 98 93 98 98 95 90 86 83 73 63 64 69 84 91 85 89 91 96 93 94 95 91 89 92 82 90 74 81 77 77 59 57 54 55 61 66 66

GFSGBSN_925_rhum_027.txt.gz
RH
67 68 69 66 65 66 76 79 81 84 83 89 98 96 99 93 92 94 84 87 90 92 92 84 85 83 74 83 89 63 61 65 80 87 81 75 76 74 75 76 74 83 76 69 64 60 60
68 68 66 67 67 68 62 68 78 78 82 84 88 98 93 92 86 87 87 79 90 93 92 83 78 88 79 73 46 47 52 72 84 87 86 76 76 72 76 77 72 69 70 69 64 61 58
67 66 63 63 66 64 66 71 73 77 80 81 80 94 94 99 93 91 88 86 86 82 88 82 85 83 92 77 58 58 51 57 87 75 84 85 75 75 78 87 74 75 83 72 70 65 63
66 62 60 61 64 65 59 60 60 69 72 79 77 87 93 96 94 93 85 97 84 80 89 84 90 82 79 54 57 51 56 53 58 68 69 75 87 82 82 72 69 80 80 79 62 60 61
60 63 63 62 71 72 71 66 63 60 70 80 85 81 86 94 97 90 92 90 88 85 89 90 91 80 85 58 64 54 56 51 53 58 53 66 68 76 80 88 83 84 87 89 67 58 61
69 72 61 69 71 69 70 63 64 66 72 85 83 86 84 97 99 89 98 86 92 96 88 88 89 91 71 64 62 63 53 51 55 61 60 60 67 80 78 90 88 82 86 72 71 58 65
79 74 65 66 77 74 72 61 57 71 67 87 89 88 90 94 91 96 99 99 94 92 86 83 78 74 62 62 62 66 61 54 56 66 88 70 80 88 82 81 75 87 90 80 70 60 65
78 67 72 71 75 70 72 67 68 65 70 87 91 93 96 95 92 96 96 93 75 65 92 82 84 85 72 68 69 70 61 69 70 86 78 83 91 66 56 70 74 77 83 81 60 54 61
68 73 73 76 79 76 73 70 72 78 85 88 85 89 96 92 96 96 97 76 58 49 76 73 85 80 81 69 79 74 63 73 81 91 88 88 70 67 73 77 75 82 88 71 63 64 61
77 81 80 79 79 79 78 73 75 84 84 79 76 83 96 93 78 98 96 77 60 50 85 67 89 85 81 69 76 61 60 67 80 90 90 91 70 74 83 83 78 88 70 70 76 84 78
84 72 82 82 80 78 79 76 77 80 76 85 90 92 94 93 99 93 93 80 54 46 74 71 94 75 76 74 67 77 61 63 84 85 86 82 84 93 82 72 74 77 65 73 76 88 83
73 78 79 77 81 79 79 78 68 64 84 91 94 94 92 92 90 79 98 80 50 80 85 92 87 93 93 78 74 74 70 63 69 74 78 76 70 74 78 71 66 65 77 78 81 89 95
76 78 78 82 81 81 77 76 63 68 87 98 99 95 92 90 84 80 100 86 96 85 67 95 88 87 77 84 82 78 89 94 94 99 95 81 86 74 69 76 72 72 100 94 96 98 82
80 77 79 83 81 82 76 70 63 77 93 89 100 97 96 97 88 91 90 98 87 70 82 66 75 80 80 77 72 74 86 91 80 88 100 93 88 82 78 73 80 88 89 89 90 87 72
78 79 79 83 81 81 73 63 67 85 98 99 94 95 94 99 88 81 97 98 76 72 80 79 75 83 84 77 78 75 81 80 67 82 98 95 91 82 85 76 67 97 97 70 86 75 94
78 80 83 82 80 80 69 66 77 92 91 100 89 95 94 94 81 97 100 83 72 68 74 72 86 80 85 87 90 87 84 70 76 62 67 78 97 77 81 71 74 88 74 96 98 93 86
85 82 82 79 83 80 73 69 79 89 97 89 89 96 94 88 85 98 100 84 87 74 63 72 80 86 79 84 82 86 77 64 70 74 70 80 87 81 94 96 76 95 99 99 90 89 78
86 81 82 80 83 78 78 70 75 91 98 95 96 99 96 98 99 100 100 81 81 88 74 77 71 74 75 82 86 81 80 68 70 81 87 74 90 98 84 62 64 64 78 80 96 83 90
84 80 83 78 82 78 73 70 78 95 97 98 96 96 99 74 99 100 87 88 88 86 79 77 83 76 73 78 88 79 77 64 77 78 86 76 95 98 84 82 67 95 87 91 95 98 93
77 84 83 83 83 84 69 69 84 97 99 100 95 99 99 94 94 95 88 90 94 76 80 71 79 74 81 86 76 87 86 69 75 73 66 64 90 87 80 82 89 99 98 96 98 97 76
83 84 81 82 82 82 69 70 86 90 99 100 96 99 94 100 99 83 71 79 95 91 78 75 87 77 78 89 83 86 82 77 78 74 75 81 99 94 90 82 92 98 96 97 98 85 91
86 85 80 82 78 80 71 71 85 95 90 91 98 96 96 94 87 74 78 83 82 93 86 86 92 78 80 96 84 87 78 79 75 81 84 81 98 100 96 82 83 99 97 96 95 91 79
86 85 81 81 79 82 74 73 80 87 98 92 87 92 84 85 83 77 86 86 80 83 82 71 78 76 90 73 80 79 76 66 66 86 83 96 100 100 93 78 94 100 95 96 94 84 77
79 78 78 81 80 82 80 77 79 85 98 100 96 98 94 98 91 80 74 81 80 77 88 80 77 84 72 79 83 87 88 88 90 88 78 87 100 100 97 98 98 89 78 80 82 75 70
80 83 81 80 81 82 81 80 76 84 95 100 99 100 90 96 79 78 80 79 90 84 90 85 78 73 78 84 95 92 82 93 93 92 92 82 83 100 100 96 80 66 75 85 82 87 68
80 83 78 78 83 83 82 82 76 85 95 99 100 100 99 90 86 68 87 79 90 92 91 88 93 90 84 91 97 98 93 78 83 92 90 85 80 98 98 99 96 61 63 74 73 84 67
84 84 82 82 83 83 84 80 78 87 94 100 98 99 100 90 82 69 81 91 83 89 89 96 95 90 88 97 100 99 88 82 93 91 92 99 95 96 96 100 81 62 65 72 73 60 60
82 84 84 84 83 84 86 77 80 88 94 99 94 100 100 92 85 67 65 85 88 85 90 91 91 96 99 100 100 96 95 88 90 81 93 88 96 96 94 93 90 54 66 69 54 64 63
80 79 81 83 86 88 80 76 77 89 90 96 96 90 100 94 83 84 72 64 65 66 84 94 89 87 90 99 96 91 86 94 88 90 83 93 75 78 77 73 59 58 56 53 64 70 70